• Join FlightAware (Why Join?)
  • Login
  • US Flag 
06:50PM EST


 

Airport Tracker/Info


-or-


 

Live Flight TrackerFlight Track Log ✈ EJA102 ✈ 16-Jun-2014 ✈ KACK - KTEB

Flight Track Log - Related Links

Times and Time Zones

All times are in EDT time to prevent confusion due to time zone crossing. See the EJA102 flight status page for this flight to view local times or setup timezone preferences in your user account.

Time Position Orientation Groundspeed Altitude Reporting Facility
EDT Latitude Longitude Course Direction KTS MPH feet Rate Location/Type
03:03PM 41.3208 -70.0369 298° West 221 254 2,700  Level Boston Center
03:04PM 41.3542 -69.9583 61° Northeast 247 284 6,000 2,820 Climbing Boston Center
03:05PM 41.2831 -69.9558 178° South 280 322 8,600 2,160 Climbing Boston Center
03:06PM 41.2844 -70.0503 271° West 268 308 10,500 1,920 Climbing Boston Center
03:07PM 41.3069 -70.1519 286° West 283 326 12,500 1,800 Climbing Boston Center
03:08PM 41.4285 -70.7127 298° West  Level FlightAware Approximate
03:08PM 41.3278 -70.2583 285° West 295 339 14,200  Level Boston Center
03:09PM 41.3503 -70.3714 285° West 311 358 15,900 1,620 Climbing Boston Center
03:10PM 41.3722 -70.4850 284° West 313 360 17,600 1,620 Climbing Boston Center
03:11PM 41.3961 -70.5997 286° West 318 366 19,200 1,140 Climbing Boston Center
03:12PM 41.4453 -70.7297 297° West 325 374 20,000 360 Climbing Boston Center
03:13PM 41.4911 -70.8442 298° West 344 396 20,000  Level Boston Center
03:14PM 41.5406 -70.9633 299° West 359 413 20,000  Level Boston Center
03:15PM 41.5892 -71.0858 298° West 371 427 20,000  Level Boston Center
03:16PM 41.6383 -71.2097 298° West 372 428 20,000  Level Boston Center
03:17PM 41.6853 -71.3361 296° West 377 434 20,000  Level Boston Center
03:18PM 41.7319 -71.4639 296° West 380 437 20,000  Level Boston Center
03:19PM 41.7803 -71.6017 295° West 380 437 20,000  Level Boston Center
03:20PM 41.8256 -71.7300 295° West 380 437 20,000  Level Boston Center
03:21PM 41.8700 -71.8592 295° West 380 437 20,000 -240 Level Boston Center
03:22PM 41.9142 -71.9864 295° West 380 437 19,600 -1,080 Descending Boston Center
03:23PM 41.9631 -72.1261 295° West 367 422 17,900 -1,260 Descending Boston Center
03:24PM 42.0075 -72.2572 295° West 363 418 17,100 -480 Descending Boston Center
03:25PM 42.0486 -72.3778 295° West 357 411 17,000 -60 Descending Boston Center
03:26PM 42.0933 -72.5089 295° West 359 413 17,000 -300 Level Boston Center
03:27PM 42.1347 -72.6292 295° West 358 412 16,400 -540 Descending Boston Center
03:28PM 42.1586 -72.7511 285° West 351 404 16,000 -240 Descending Boston Center
03:29PM 42.1511 -72.8922 266° West 352 405 16,000 -720 Level Boston Center
03:30PM 42.1428 -73.0203 265° West 349 402 14,600 -1,020 Descending Boston Center
03:31PM 42.1339 -73.1553 265° West 340 391 14,000 -300 Descending Boston Center
03:32PM 42.1256 -73.2794 265° West 335 386 14,000 -60 Level Boston Center
03:33PM 42.1172 -73.3853 264° West 337 388 13,900 -60 Descending Boston Center
03:34PM 42.1086 -73.5128 265° West 342 394 13,900  Level Boston Center
03:35PM 42.0969 -73.6642 264° West 341 392 13,900  Level Boston Center
03:36PM 42.0867 -73.8000 264° West 341 392 14,000  Climbing Boston Center
03:37PM 42.0769 -73.9269 264° West 341 392 13,900 -240 Descending Boston Center
03:38PM 42.0675 -74.0544 264° West 341 392 13,600 -720 Descending Boston Center
03:39PM 42.0586 -74.1769 264° West 305 351 12,500 -1,020 Descending Boston Center
03:40PM 42.0500 -74.2819 264° West 286 329 11,600 -1,020 Descending Boston Center
03:42PM 41.9928 -74.3578 225° Southwest 307 353 10,500 -900 Descending Boston Center
03:43PM 41.9142 -74.4164 209° Southwest 302 348 9,800 -720 Descending Boston Center
03:44PM 41.8414 -74.4689 208° Southwest 301 346 9,100 -660 Descending Boston Center
03:45PM 41.7697 -74.5194 208° Southwest 298 343 8,500 -600 Descending Boston Center
03:46PM 41.6811 -74.5406 190° South 299 344 7,900 -840 Descending Boston Center
03:47PM 41.6044 -74.5556 188° South 283 326 6,900 -900 Descending Boston Center
03:48PM 41.5289 -74.5697 188° South 278 320 6,100 -420 Descending Boston Center
03:49PM 41.4483 -74.5856 188° South 276 318 6,100 -60 Level Boston Center
03:50PM 41.3736 -74.6042 191° South 275 316 6,000 -540 Descending Boston Center
03:51PM 41.2833 -74.5667 163° South 272 313 4,900 -900 Descending New York TRACON
03:52PM 41.2500 -74.4833 118° Southeast 268 308 4,000 -420 Descending New York TRACON
03:53PM 41.2000 -74.4000 129° Southeast 274 315 4,100 -120 Climbing New York TRACON
03:54PM 41.1667 -74.3333 124° Southeast 269 310 3,800 -540 Descending New York TRACON
03:55PM 41.1167 -74.2500 129° Southeast 265 305 3,100 -420 Descending New York TRACON
03:56PM 41.0833 -74.1667 118° Southeast 226 260 3,000 -420 Descending New York TRACON
03:57PM 41.0667 -74.1167 114° Southeast 187 215 2,300 -480 Descending New York TRACON
03:58PM 41.0167 -74.0667 143° Southeast 188 216 2,100 -120 Descending New York TRACON
03:59PM 40.9667 -74.0500 166° South 181 208 2,100 -300 Level New York TRACON
04:00PM 40.9333 -74.0500 180° South 126 145 1,600 -600 Descending New York TRACON
04:01PM 40.9000 -74.0500 180° South 118 136 1,000 -600 Descending New York TRACON
04:02PM 40.8667 -74.0500 180° South 114 131 400 -600 Descending New York TRACON
04:04PM 40.8500 -74.0500 150° Southeast  Level FlightAware Approximate
04:11PM 40.8501 -74.0608 150° Southeast  Level Estimated